STARLINK-32034 (60297 NORAD) Tracking and Keplerian Element Data

This shows tracking and keplerian element data for the satellite.

Feedback or suggestion? Click here.




ElementValue
Catalog60297
NameSTARLINK-32034
Epoch Orbit1301
Epoch Day286.67108789
Epoch Year2024
RAAN275.444
Inclination53.1571
Eccentricity0.0001281
Argument of Perigee96.4379
Mean Anonmoly263.6767
Mean Motion15.30197033
Decay Rate0.00023931
L11 60297U 24132V 24286.67108789 .00023931 00000+0 81757-3 0 9992
L22 60297 53.1571 275.4440 0001281 96.4379 263.6767 15.30197033 13018



Live tracking and technical data element details for STARLINK-32034 (NORAD 60297). STARLINK-32034 can be tracked NOW for your location showing map with azimuth and elevation plus other details from your city location.







IsCatalogInMostPopularTable: catalog: 60297, numindb: 11
Update: records affected: 1



GetName: 60297 STARLINK-32034

Hit Count: updated at: Thu, 23 Jan 2025 15:11:43 GMT